"Pseudo-MPEC" for P22gvDc

Created 2025 Oct 18 0:35:18 UT using Find_Orb

Click here for an explanation of pseudo-MPECs

 
 Astrometry: 
     P22gvDc  C2025 09 26.48220503 36 54.130+28 02 51.28   ~AFF5 22.26wXNEOCPF51
     P22gvDc  C2025 09 26.49407503 36 54.835+28 03 02.59   ~AFF5 21.82wXNEOCPF51
     P22gvDc  C2025 09 26.51778803 36 56.277+28 03 24.58   ~AFF5 22.35wXNEOCPF51
     P22gvDc  C2025 10 01.59738303 41 58.536+29 20 39.71   ~AFF5 22.04wXNEOCPF52
     P22gvDc  C2025 10 01.60843603 41 59.062+29 20 49.78   ~AFF5 22.15wXNEOCPF52
     P22gvDc  C2025 10 01.61946803 41 59.622+29 20 59.46   ~AFF5 22.11wXNEOCPF52
     P22gvDc  C2025 10 01.63035803 42 00.173+29 21 08.77   ~AFF5 21.73wXNEOCPF52
     P22gvDc* C2025 10 15.44032903 50 24.319+32 38 29.28   ~AFC5 21.66wXNEOCPF52
     P22gvDc  C2025 10 15.45049903 50 24.448+32 38 37.72   ~AFC5 21.40wXNEOCPF52
     P22gvDc  C2025 10 15.46069003 50 24.569+32 38 45.84   ~AFC5 21.44wXNEOCPF52
     P22gvDc  C2025 10 15.47090203 50 24.705+32 38 54.06   ~AFC5 21.47wXNEOCPF52
     P22gvDc  C2025 10 15.52993303 50 25.390+32 39 41.71   ~AFHK 21.06GVNEOCPF52
     P22gvDc  C2025 10 15.53073803 50 25.397+32 39 42.37   ~AFHK 21.49GVNEOCPF52
     P22gvDc KC2025 10 17.28018903 50 51.67 +33 02 37.6    ~AH7K 21.5 GVNEOCPH21
     P22gvDc KC2025 10 17.28578603 50 51.68 +33 02 41.5    ~AH7K 21.3 GVNEOCPH21

Station data:
(F51) Pan-STARRS 1, Haleakala  (N20.707234 W156.255910)  US/Hawaii.
   Observers J. Herman, T. Lowe, P. Minguez, A. Schultz, I. Smith. Measurers
   K. Chambers, T. de Boer, J. Fairlamb, H. Gao, M. Huber, C.-C. Lin, E.
   Magnier, Y. Ramanjooloo, R. Wainscoat, R. Weryk. 1.8-m Ritchey-Chrétien +
   CCD.
(F52) Pan-STARRS 2, Haleakala  (N20.707382 W156.255910)  US/Hawaii.
   Observers J. Herman, T. Lowe, P. Minguez, A. Schultz, I. Smith. Measurers
   K. Chambers, T. de Boer, J. Fairlamb, H. Gao, M. Huber, C.-C. Lin, E.
   Magnier, Y. Ramanjooloo, R. Wainscoat, R. Weryk. 1.8-m Ritchey-Chrétien +
   CCD.
(H21) Astronomical Research Observatory, Westfield  (N39.483054 W87.968270)
   US/Illinois.  Observer R. Holmes. Measurers S. Foglia, L. Buzzi, T.
   Linder, R. Holmes. 0.40-m f/5.32 astrograph + CCD.

Orbital elements:  P22gvDc
   Perihelion 2025 Oct 13.123316 +/- 0.0399 TT =  2:57:34.5 (JD 2460961.623316)
Epoch 2025 Oct 17.0 TT = JDT 2460965.5   Earth MOID: 0.5989      AutoNEOCP
M   0.927591820 +/- 0.008           (J2000 ecliptic)
n   0.239274547 +/- 0.000219        Peri.   42.762331 +/- 0.028
a   2.569636625 +/- 0.00157         Node   354.372803 +/- 0.008
e   0.38407709 +/- 0.000311         Incl.    7.680169 +/- 0.0021
P   4.11915                H 20.16  G  0.15   U  7.1
q 1.582698058 +/- 0.000172    Q 3.556575192 +/- 0.00297
From 15 observations 2025 Sept. 26-Oct. 17; mean residual 0".15
Residuals in arcseconds: 
250926 F51  .11+  .06-    251001 F52  .04+  .06+    251015 F52  .07+  .12-    
250926 F51  .11-  .12+    251001 F52  .25+  .30-    251015 F52  .02+  .02-    
250926 F51  .03-  .05-    251015 F52  .06-  .06+    251015 F52  .01-  .00     
251001 F52  .03-  .00     251015 F52  .04-  .17+    251017 H21  .37+  .15+    
251001 F52  .22-  .20+    251015 F52  .09-  .03-    251017 H21  .04-  .36-    

Ephemerides (geocentric):
Date (UTC) HH   RA             Dec           delta  r     elong  mag " sig PA
---- --------  ------------   ------------  ------ ------ -----  --- --------
2025 10 18 01  03 50 59.902   +33 12 28.32  .68442 1.5832 140.0 21.5 .131 111
2025 10 18 02  03 51 00.319   +33 13 00.36  .68427 1.5833 140.1 21.5 .133 110
2025 10 18 03  03 51 00.732   +33 13 32.37  .68411 1.5833 140.1 21.4 .136 110
2025 10 18 04  03 51 01.139   +33 14 04.36  .68396 1.5833 140.1 21.4 .138 110
2025 10 18 05  03 51 01.541   +33 14 36.34  .68381 1.5833 140.2 21.4 .140 110
2025 10 18 06  03 51 01.938   +33 15 08.28  .68366 1.5833 140.2 21.4 .143 110
2025 10 18 07  03 51 02.331   +33 15 40.21  .68350 1.5833 140.2 21.4 .145 110
2025 10 18 08  03 51 02.718   +33 16 12.12  .68335 1.5833 140.3 21.4 .148 110
2025 10 18 09  03 51 03.099   +33 16 44.00  .68320 1.5833 140.3 21.4 .150 110
2025 10 18 10  03 51 03.476   +33 17 15.86  .68305 1.5833 140.3 21.4 .152 110
2025 10 18 11  03 51 03.848   +33 17 47.70  .68290 1.5833 140.4 21.4 .155 110
2025 10 18 12  03 51 04.215   +33 18 19.52  .68274 1.5834 140.4 21.4 .157 110
2025 10 18 13  03 51 04.577   +33 18 51.32  .68259 1.5834 140.4 21.4 .160 110
2025 10 18 14  03 51 04.933   +33 19 23.09  .68244 1.5834 140.5 21.4 .162 110
2025 10 18 15  03 51 05.285   +33 19 54.84  .68229 1.5834 140.5 21.4 .165 110
2025 10 18 16  03 51 05.631   +33 20 26.57  .68214 1.5834 140.5 21.4 .167 110
2025 10 18 17  03 51 05.973   +33 20 58.28  .68199 1.5834 140.6 21.4 .170 110
2025 10 18 18  03 51 06.309   +33 21 29.97  .68184 1.5834 140.6 21.4 .172 110
2025 10 18 19  03 51 06.640   +33 22 01.63  .68169 1.5834 140.6 21.4 .175 110
2025 10 18 20  03 51 06.967   +33 22 33.27  .68154 1.5834 140.7 21.4 .177 110
2025 10 18 21  03 51 07.288   +33 23 04.89  .68139 1.5834 140.7 21.4 .180 110
2025 10 18 22  03 51 07.604   +33 23 36.48  .68124 1.5835 140.7 21.4 .183 110
2025 10 18 23  03 51 07.915   +33 24 08.06  .68109 1.5835 140.8 21.4 .185 110
2025 10 19 00  03 51 08.221   +33 24 39.61  .68095 1.5835 140.8 21.4 .188 110
2025 10 19 01  03 51 08.522   +33 25 11.14  .68080 1.5835 140.8 21.4 .190 110
2025 10 19 02  03 51 08.818   +33 25 42.64  .68065 1.5835 140.9 21.4 .193 110
2025 10 19 03  03 51 09.109   +33 26 14.13  .68050 1.5835 140.9 21.4 .196 110
2025 10 19 04  03 51 09.394   +33 26 45.59  .68035 1.5835 140.9 21.4 .198 110
2025 10 19 05  03 51 09.675   +33 27 17.02  .68021 1.5835 141.0 21.4 .201 109
2025 10 19 06  03 51 09.951   +33 27 48.44  .68006 1.5835 141.0 21.4 .204 109
2025 10 19 07  03 51 10.221   +33 28 19.83  .67991 1.5836 141.0 21.4 .206 109
2025 10 19 08  03 51 10.487   +33 28 51.20  .67976 1.5836 141.1 21.4 .209 109
2025 10 19 09  03 51 10.747   +33 29 22.55  .67962 1.5836 141.1 21.4 .212 109
2025 10 19 10  03 51 11.002   +33 29 53.87  .67947 1.5836 141.1 21.4 .214 109
2025 10 19 11  03 51 11.253   +33 30 25.17  .67933 1.5836 141.2 21.4 .217 109
2025 10 19 12  03 51 11.498   +33 30 56.45  .67918 1.5836 141.2 21.4 .220 109
2025 10 19 13  03 51 11.738   +33 31 27.70  .67903 1.5836 141.2 21.4 .223 109
2025 10 19 14  03 51 11.973   +33 31 58.93  .67889 1.5836 141.3 21.4 .225 109
2025 10 19 15  03 51 12.203   +33 32 30.14  .67874 1.5837 141.3 21.4 .228 109
2025 10 19 16  03 51 12.428   +33 33 01.32  .67860 1.5837 141.3 21.4 .231 109
2025 10 19 17  03 51 12.648   +33 33 32.49  .67845 1.5837 141.4 21.4 .234 109
2025 10 19 18  03 51 12.863   +33 34 03.62  .67831 1.5837 141.4 21.4 .237 109
2025 10 19 19  03 51 13.073   +33 34 34.74  .67817 1.5837 141.4 21.4 .239 109
2025 10 19 20  03 51 13.278   +33 35 05.83  .67802 1.5837 141.5 21.4 .242 109
2025 10 19 21  03 51 13.477   +33 35 36.90  .67788 1.5837 141.5 21.4 .245 109
2025 10 19 22  03 51 13.672   +33 36 07.94  .67773 1.5837 141.5 21.4 .248 109
2025 10 19 23  03 51 13.862   +33 36 38.96  .67759 1.5838 141.6 21.4 .251 109
2025 10 20 00  03 51 14.046   +33 37 09.96  .67745 1.5838 141.6 21.4 .254 109